This is the latest recevied weather packets stored in our database for station/object EA1HEH-13. If no packets are shown the sender has not sent any weather packets the latest 10 day(s).
| Time | Temp. | Humidity | Pressure | Rain* | Wind** | Luminosity | Snow |
|---|---|---|---|---|---|---|---|
| 1777498536 | 16.11° C | 51% | 932 hPa | - | - | - | - |
| 1777488936 | 15.56° C | 52% | 930.7 hPa | - | - | - | - |
| 1777487736 | 16.67° C | 53% | 929.3 hPa | - | - | - | - |
| 1777487136 | 17.78° C | 50% | 929.7 hPa | - | - | - | - |
| 1777484736 | 18.89° C | 49% | 929.1 hPa | - | - | - | - |
| 1777462535 | 18.89° C | 44% | 928.1 hPa | - | - | - | - |
| 1777461935 | 18.89° C | 44% | 928.2 hPa | - | - | - | - |
| 1777461335 | 18.89° C | 45% | 928.3 hPa | - | - | - | - |
| 1777460735 | 18.89° C | 45% | 928.2 hPa | - | - | - | - |
| 1777458935 | 18.33° C | 46% | 928.3 hPa | - | - | - | - |
| 1777458335 | 18.33° C | 46% | 928.4 hPa | - | - | - | - |
| 1777457735 | 18.33° C | 46% | 928.4 hPa | - | - | - | - |
| 1777457135 | 18.33° C | 46% | 928.4 hPa | - | - | - | - |
| 1777455335 | 18.33° C | 46% | 928.4 hPa | - | - | - | - |
| 1777454735 | 18.33° C | 46% | 928.4 hPa | - | - | - | - |
| 1777454135 | 18.33° C | 46% | 928.3 hPa | - | - | - | - |
| 1777453535 | 17.78° C | 46% | 928.3 hPa | - | - | - | - |
| 1777452935 | 18.33° C | 46% | 928.2 hPa | - | - | - | - |
| 1777452335 | 17.78° C | 46% | 928.1 hPa | - | - | - | - |
| 1777451735 | 17.78° C | 46% | 928.2 hPa | - | - | - | - |
| 1777451135 | 17.78° C | 47% | 928.2 hPa | - | - | - | - |
| 1777450535 | 17.78° C | 46% | 928 hPa | - | - | - | - |
| 1777449935 | 18.33° C | 46% | 927.9 hPa | - | - | - | - |
| 1777449335 | 17.78° C | 46% | 927.9 hPa | - | - | - | - |
| 1777448135 | 17.78° C | 46% | 928 hPa | - | - | - | - |
* Rain since midnight (hover to see other rain measurements)
** Current wind speed in m/s (hover to see current wind gust speed)